Year,Month,Day,Hour,Minute,Value (Times are PST for temperature in C)
2021,06,29,00,00,16.80
2021,06,29,00,01,16.80
2021,06,29,00,02,16.80
2021,06,29,00,03,16.80
2021,06,29,00,04,16.80
2021,06,29,00,05,16.80
2021,06,29,00,06,16.80
2021,06,29,00,07,16.80
2021,06,29,00,08,16.70
2021,06,29,00,09,16.70
2021,06,29,00,10,16.70
2021,06,29,00,11,16.60
2021,06,29,00,12,16.50
2021,06,29,00,13,16.40
2021,06,29,00,14,16.30
2021,06,29,00,15,16.10
2021,06,29,00,16,16.00
2021,06,29,00,17,15.80
2021,06,29,00,18,15.80
2021,06,29,00,19,15.70
2021,06,29,00,20,15.70
2021,06,29,00,21,15.60
2021,06,29,00,22,15.60
2021,06,29,00,23,15.60
2021,06,29,00,24,15.60
2021,06,29,00,25,15.60
2021,06,29,00,26,15.50
2021,06,29,00,27,15.50
2021,06,29,00,28,15.50
2021,06,29,00,29,15.50
2021,06,29,00,30,15.40
2021,06,29,00,31,15.40
2021,06,29,00,32,15.40
2021,06,29,00,33,15.40
2021,06,29,00,34,15.40
2021,06,29,00,35,15.40
2021,06,29,00,36,15.40
2021,06,29,00,37,15.30
2021,06,29,00,38,15.30
2021,06,29,00,39,15.20
2021,06,29,00,40,15.20
2021,06,29,00,41,15.10
2021,06,29,00,42,15.10
2021,06,29,00,43,15.10
2021,06,29,00,44,15.10
2021,06,29,00,45,15.00
2021,06,29,00,46,15.00
2021,06,29,00,47,14.90
2021,06,29,00,48,14.80
2021,06,29,00,49,14.80
2021,06,29,00,50,14.80
2021,06,29,00,51,14.70
2021,06,29,00,52,14.70
2021,06,29,00,53,14.70
2021,06,29,00,54,14.70
2021,06,29,00,55,14.70
2021,06,29,00,56,14.70
2021,06,29,00,57,14.70
2021,06,29,00,58,14.70
2021,06,29,00,59,14.70
2021,06,29,01,00,14.70
2021,06,29,01,01,14.70
2021,06,29,01,02,14.70
2021,06,29,01,03,14.70
2021,06,29,01,04,14.70
2021,06,29,01,05,14.70
2021,06,29,01,06,14.70
2021,06,29,01,07,14.70
2021,06,29,01,08,14.80
2021,06,29,01,09,14.80
2021,06,29,01,10,14.80
2021,06,29,01,11,14.70
2021,06,29,01,12,14.70
2021,06,29,01,13,14.70
2021,06,29,01,14,14.70
2021,06,29,01,15,14.80
2021,06,29,01,16,14.80
2021,06,29,01,17,14.90
2021,06,29,01,18,14.90
2021,06,29,01,19,15.00
2021,06,29,01,20,15.10
2021,06,29,01,21,15.20
2021,06,29,01,22,15.30
2021,06,29,01,23,15.30
2021,06,29,01,24,15.30
2021,06,29,01,25,15.30
2021,06,29,01,26,15.30
2021,06,29,01,27,15.20
2021,06,29,01,28,15.00
2021,06,29,01,29,14.90
2021,06,29,01,30,14.90
2021,06,29,01,31,14.80
2021,06,29,01,32,14.70
2021,06,29,01,33,14.60
2021,06,29,01,34,14.50
2021,06,29,01,35,14.50
2021,06,29,01,36,14.40
2021,06,29,01,37,14.30
2021,06,29,01,38,14.30
2021,06,29,01,39,14.30
2021,06,29,01,40,14.30
2021,06,29,01,41,14.20
2021,06,29,01,42,14.20
2021,06,29,01,43,14.20
2021,06,29,01,44,14.20
2021,06,29,01,45,14.20
2021,06,29,01,46,14.20
2021,06,29,01,47,14.20
2021,06,29,01,48,14.20
2021,06,29,01,49,14.20
2021,06,29,01,50,14.20
2021,06,29,01,51,14.20
2021,06,29,01,52,14.20
2021,06,29,01,53,14.30
2021,06,29,01,54,14.30
2021,06,29,01,55,14.30
2021,06,29,01,56,14.30
2021,06,29,01,57,14.30
2021,06,29,01,58,14.30
2021,06,29,01,59,14.40
2021,06,29,02,00,14.40
2021,06,29,02,01,14.40
2021,06,29,02,02,14.40
2021,06,29,02,03,14.40
2021,06,29,02,04,14.40
2021,06,29,02,05,14.50
2021,06,29,02,06,14.50
2021,06,29,02,07,14.50
2021,06,29,02,08,14.60
2021,06,29,02,09,14.60
2021,06,29,02,10,14.60
2021,06,29,02,11,14.60
2021,06,29,02,12,14.70
2021,06,29,02,13,14.70
2021,06,29,02,14,14.70
2021,06,29,02,15,14.80
2021,06,29,02,16,14.80
2021,06,29,02,17,14.90
2021,06,29,02,18,14.90
2021,06,29,02,19,14.90
2021,06,29,02,20,14.90
2021,06,29,02,21,15.00
2021,06,29,02,22,15.00
2021,06,29,02,23,15.00
2021,06,29,02,24,15.00
2021,06,29,02,25,15.10
2021,06,29,02,26,15.10
2021,06,29,02,27,15.10
2021,06,29,02,28,15.10
2021,06,29,02,29,15.10
2021,06,29,02,30,15.10
2021,06,29,02,31,15.10
2021,06,29,02,32,15.10
2021,06,29,02,33,15.10
2021,06,29,02,34,15.10
2021,06,29,02,35,15.10
2021,06,29,02,36,15.20
2021,06,29,02,37,15.20
2021,06,29,02,38,15.20
2021,06,29,02,39,15.20
2021,06,29,02,40,15.20
2021,06,29,02,41,15.30
2021,06,29,02,42,15.30
2021,06,29,02,43,15.30
2021,06,29,02,44,15.30
2021,06,29,02,45,15.30
2021,06,29,02,46,15.30
2021,06,29,02,47,15.30
2021,06,29,02,48,15.30
2021,06,29,02,49,15.30
2021,06,29,02,50,15.20
2021,06,29,02,51,15.10
2021,06,29,02,52,15.00
2021,06,29,02,53,14.90
2021,06,29,02,54,14.80
2021,06,29,02,55,14.80
2021,06,29,02,56,14.70
2021,06,29,02,57,14.70
2021,06,29,02,58,14.60
2021,06,29,02,59,14.60
2021,06,29,03,00,14.50
2021,06,29,03,01,14.40
2021,06,29,03,02,14.40
2021,06,29,03,03,14.40
2021,06,29,03,04,14.40
2021,06,29,03,05,14.40
2021,06,29,03,06,14.40
2021,06,29,03,07,14.40
2021,06,29,03,08,14.40
2021,06,29,03,09,14.30
2021,06,29,03,10,14.30
2021,06,29,03,11,14.30
2021,06,29,03,12,14.30
2021,06,29,03,13,14.30
2021,06,29,03,14,14.30
2021,06,29,03,15,14.30
2021,06,29,03,16,14.30
2021,06,29,03,17,14.30
2021,06,29,03,18,14.30
2021,06,29,03,19,14.30
2021,06,29,03,20,14.30
2021,06,29,03,21,14.30
2021,06,29,03,22,14.30
2021,06,29,03,23,14.30
2021,06,29,03,24,14.30
2021,06,29,03,25,14.30
2021,06,29,03,26,14.30
2021,06,29,03,27,14.30
2021,06,29,03,28,14.30
2021,06,29,03,29,14.30
2021,06,29,03,30,14.40
2021,06,29,03,31,14.40
2021,06,29,03,32,14.40
2021,06,29,03,33,14.40
2021,06,29,03,34,14.50
2021,06,29,03,35,14.50
2021,06,29,03,36,14.50
2021,06,29,03,37,14.50
2021,06,29,03,38,14.50
2021,06,29,03,39,14.50
2021,06,29,03,40,14.60
2021,06,29,03,41,14.60
2021,06,29,03,42,14.60
2021,06,29,03,43,14.60
2021,06,29,03,44,14.60
2021,06,29,03,45,14.60
2021,06,29,03,46,14.60
2021,06,29,03,47,14.60
2021,06,29,03,48,14.50
2021,06,29,03,49,14.50
2021,06,29,03,50,14.50
2021,06,29,03,51,14.50
2021,06,29,03,52,14.50
2021,06,29,03,53,14.50
2021,06,29,03,54,14.60
2021,06,29,03,55,14.60
2021,06,29,03,56,14.50
2021,06,29,03,57,14.60
2021,06,29,03,58,14.60
2021,06,29,03,59,14.60
2021,06,29,04,00,14.60
2021,06,29,04,01,14.60
2021,06,29,04,02,14.60
2021,06,29,04,03,14.60
2021,06,29,04,04,14.60
2021,06,29,04,05,14.70
2021,06,29,04,06,14.70
2021,06,29,04,07,14.70
2021,06,29,04,08,14.70
2021,06,29,04,09,14.80
2021,06,29,04,10,14.80
2021,06,29,04,11,14.80
2021,06,29,04,12,14.80
2021,06,29,04,13,14.80
2021,06,29,04,14,14.80
2021,06,29,04,15,14.80
2021,06,29,04,16,14.80
2021,06,29,04,17,14.80
2021,06,29,04,18,14.80
2021,06,29,04,19,14.80
2021,06,29,04,20,14.80
2021,06,29,04,21,14.80
2021,06,29,04,22,14.80
2021,06,29,04,23,14.80
2021,06,29,04,24,14.80
2021,06,29,04,25,14.80
2021,06,29,04,26,14.80
2021,06,29,04,27,14.80
2021,06,29,04,28,14.80
2021,06,29,04,29,14.80
2021,06,29,04,30,14.80
2021,06,29,04,31,14.80
2021,06,29,04,32,14.80
2021,06,29,04,33,14.80
2021,06,29,04,34,14.80
2021,06,29,04,35,14.80
2021,06,29,04,36,14.80
2021,06,29,04,37,14.80
2021,06,29,04,38,14.80
2021,06,29,04,39,14.80
2021,06,29,04,40,14.80
2021,06,29,04,41,14.80
2021,06,29,04,42,14.90
2021,06,29,04,43,14.90
2021,06,29,04,44,14.90
2021,06,29,04,45,15.00
2021,06,29,04,46,15.00
2021,06,29,04,47,14.90
2021,06,29,04,48,14.90
2021,06,29,04,49,14.90
2021,06,29,04,50,14.80
2021,06,29,04,51,14.80
2021,06,29,04,52,14.70
2021,06,29,04,53,14.70
2021,06,29,04,54,14.60
2021,06,29,04,55,14.60
2021,06,29,04,56,14.50
2021,06,29,04,57,14.50
2021,06,29,04,58,14.50
2021,06,29,04,59,14.50
2021,06,29,05,00,14.50
2021,06,29,05,01,14.50
2021,06,29,05,02,14.50
2021,06,29,05,03,14.40
2021,06,29,05,04,14.40
2021,06,29,05,05,14.40
2021,06,29,05,06,14.40
2021,06,29,05,07,14.40
2021,06,29,05,08,14.40
2021,06,29,05,09,14.40
2021,06,29,05,10,14.40
2021,06,29,05,11,14.40
2021,06,29,05,12,14.40
2021,06,29,05,13,14.40
2021,06,29,05,14,14.40
2021,06,29,05,15,14.40
2021,06,29,05,16,14.40
2021,06,29,05,17,14.40
2021,06,29,05,18,14.40
2021,06,29,05,19,14.40
2021,06,29,05,20,14.40
2021,06,29,05,21,14.40
2021,06,29,05,22,14.40
2021,06,29,05,23,14.40
2021,06,29,05,24,14.40
2021,06,29,05,25,14.50
2021,06,29,05,26,14.50
2021,06,29,05,27,14.50
2021,06,29,05,28,14.50
2021,06,29,05,29,14.60
2021,06,29,05,30,14.60
2021,06,29,05,31,14.60
2021,06,29,05,32,14.60
2021,06,29,05,33,14.60
2021,06,29,05,34,14.60
2021,06,29,05,35,14.60
2021,06,29,05,36,14.60
2021,06,29,05,37,14.60
2021,06,29,05,38,14.60
2021,06,29,05,39,14.60
2021,06,29,05,40,14.60
2021,06,29,05,41,14.60
2021,06,29,05,42,14.70
2021,06,29,05,43,14.70
2021,06,29,05,44,14.70
2021,06,29,05,45,14.70
2021,06,29,05,46,14.70
2021,06,29,05,47,14.70
2021,06,29,05,48,14.70
2021,06,29,05,49,14.70
2021,06,29,05,50,14.70
2021,06,29,05,51,14.70
2021,06,29,05,52,14.70
2021,06,29,05,53,14.80
2021,06,29,05,54,14.80
2021,06,29,05,55,14.90
2021,06,29,05,56,14.90
2021,06,29,05,57,15.00
2021,06,29,05,58,15.00
2021,06,29,05,59,15.10
2021,06,29,06,00,15.20
2021,06,29,06,01,15.20
2021,06,29,06,02,15.30
2021,06,29,06,03,15.30
2021,06,29,06,04,15.30
2021,06,29,06,05,15.40
2021,06,29,06,06,15.40
2021,06,29,06,07,15.40
2021,06,29,06,08,15.50
2021,06,29,06,09,15.50
2021,06,29,06,10,15.50
2021,06,29,06,11,15.50
2021,06,29,06,12,15.50
2021,06,29,06,13,15.50
2021,06,29,06,14,15.50
2021,06,29,06,15,15.50
2021,06,29,06,16,15.50
2021,06,29,06,17,15.50
2021,06,29,06,18,15.60
2021,06,29,06,19,15.60
2021,06,29,06,20,15.60
2021,06,29,06,21,15.70
2021,06,29,06,22,15.70
2021,06,29,06,23,15.70
2021,06,29,06,24,15.70
2021,06,29,06,25,15.80
2021,06,29,06,26,15.80
2021,06,29,06,27,15.80
2021,06,29,06,28,15.90
2021,06,29,06,29,15.90
2021,06,29,06,30,15.90
2021,06,29,06,31,16.00
2021,06,29,06,32,16.00
2021,06,29,06,33,16.00
2021,06,29,06,34,16.10
2021,06,29,06,35,16.20
2021,06,29,06,36,16.20
2021,06,29,06,37,16.30
2021,06,29,06,38,16.30
2021,06,29,06,39,16.40
2021,06,29,06,40,16.40
2021,06,29,06,41,16.50
2021,06,29,06,42,16.50
2021,06,29,06,43,16.60
2021,06,29,06,44,16.60
2021,06,29,06,45,16.60
2021,06,29,06,46,16.60
2021,06,29,06,47,16.70
2021,06,29,06,48,16.70
2021,06,29,06,49,16.80
2021,06,29,06,50,16.80
2021,06,29,06,51,16.80
2021,06,29,06,52,16.80
2021,06,29,06,53,16.90
2021,06,29,06,54,16.90
2021,06,29,06,55,17.00
2021,06,29,06,56,17.00
2021,06,29,06,57,17.10
2021,06,29,06,58,17.10
2021,06,29,06,59,17.20
2021,06,29,07,00,17.20
2021,06,29,07,01,17.20
2021,06,29,07,02,17.30
2021,06,29,07,03,17.40
2021,06,29,07,04,17.40
2021,06,29,07,05,17.50
2021,06,29,07,06,17.60
2021,06,29,07,07,17.60
2021,06,29,07,08,17.70
2021,06,29,07,09,17.80
2021,06,29,07,10,17.80
2021,06,29,07,11,17.90
2021,06,29,07,12,17.90
2021,06,29,07,13,18.00
2021,06,29,07,14,18.00
2021,06,29,07,15,18.00
2021,06,29,07,16,18.10
2021,06,29,07,17,18.10
2021,06,29,07,18,18.10
2021,06,29,07,19,18.20
2021,06,29,07,20,18.20
2021,06,29,07,21,18.30
2021,06,29,07,22,18.30
2021,06,29,07,23,18.30
2021,06,29,07,24,18.40
2021,06,29,07,25,18.40
2021,06,29,07,26,18.40
2021,06,29,07,27,18.50
2021,06,29,07,28,18.40
2021,06,29,07,29,18.40
2021,06,29,07,30,18.40
2021,06,29,07,31,18.40
2021,06,29,07,32,18.40
2021,06,29,07,33,18.40
2021,06,29,07,34,18.30
2021,06,29,07,35,18.30
2021,06,29,07,36,18.20
2021,06,29,07,37,18.10
2021,06,29,07,38,18.00
2021,06,29,07,39,17.90
2021,06,29,07,40,17.90
2021,06,29,07,41,17.90
2021,06,29,07,42,17.90
2021,06,29,07,43,17.90
2021,06,29,07,44,17.90
2021,06,29,07,45,17.90
2021,06,29,07,46,17.90
2021,06,29,07,47,18.00
2021,06,29,07,48,18.00
2021,06,29,07,49,18.00
2021,06,29,07,50,18.00
2021,06,29,07,51,18.00
2021,06,29,07,52,18.00
2021,06,29,07,53,18.10
2021,06,29,07,54,18.10
2021,06,29,07,55,18.10
2021,06,29,07,56,18.10
2021,06,29,07,57,18.10
2021,06,29,07,58,18.10
2021,06,29,07,59,18.10
2021,06,29,08,00,18.10
2021,06,29,08,01,18.10
2021,06,29,08,02,18.20
2021,06,29,08,03,18.20
2021,06,29,08,04,18.20
2021,06,29,08,05,18.30
2021,06,29,08,06,18.30
2021,06,29,08,07,18.40
2021,06,29,08,08,18.40
2021,06,29,08,09,18.40
2021,06,29,08,10,18.40
2021,06,29,08,11,18.40
2021,06,29,08,12,18.40
2021,06,29,08,13,18.40
2021,06,29,08,14,18.40
2021,06,29,08,15,18.30
2021,06,29,08,16,18.30
2021,06,29,08,17,18.20
2021,06,29,08,18,18.20
2021,06,29,08,19,18.10
2021,06,29,08,20,18.10
2021,06,29,08,21,18.10
2021,06,29,08,22,18.10
2021,06,29,08,23,18.20
2021,06,29,08,24,18.30
2021,06,29,08,25,18.40
2021,06,29,08,26,18.40
2021,06,29,08,27,18.40
2021,06,29,08,28,18.50
2021,06,29,08,29,18.60
2021,06,29,08,30,18.70
2021,06,29,08,31,18.80
2021,06,29,08,32,18.80
2021,06,29,08,33,18.80
2021,06,29,08,34,18.90
2021,06,29,08,35,18.90
2021,06,29,08,36,18.90
2021,06,29,08,37,18.90
2021,06,29,08,38,18.80
2021,06,29,08,39,18.80
2021,06,29,08,40,18.80
2021,06,29,08,41,18.80
2021,06,29,08,42,18.80
2021,06,29,08,43,18.80
2021,06,29,08,44,18.80
2021,06,29,08,45,18.80
2021,06,29,08,46,18.80
2021,06,29,08,47,18.70
2021,06,29,08,48,18.70
2021,06,29,08,49,18.70
2021,06,29,08,50,18.80
2021,06,29,08,51,18.80
2021,06,29,08,52,18.80
2021,06,29,08,53,18.80
2021,06,29,08,54,18.90
2021,06,29,08,55,18.90
2021,06,29,08,56,18.90
2021,06,29,08,57,19.00
2021,06,29,08,58,19.00
2021,06,29,08,59,19.10
2021,06,29,09,00,19.20
2021,06,29,09,01,19.20
2021,06,29,09,02,19.20
2021,06,29,09,03,19.30
2021,06,29,09,04,19.30
2021,06,29,09,05,19.50
2021,06,29,09,06,19.50
2021,06,29,09,07,19.70
2021,06,29,09,08,19.80
2021,06,29,09,09,19.90
2021,06,29,09,10,20.10
2021,06,29,09,11,20.10
2021,06,29,09,12,20.20
2021,06,29,09,13,20.20
2021,06,29,09,14,20.30
2021,06,29,09,15,20.50
2021,06,29,09,16,20.50
2021,06,29,09,17,20.60
2021,06,29,09,18,20.70
2021,06,29,09,19,20.80
2021,06,29,09,20,20.90
2021,06,29,09,21,21.00
2021,06,29,09,22,21.10
2021,06,29,09,23,21.20
2021,06,29,09,24,21.40
2021,06,29,09,25,21.50
2021,06,29,09,26,21.70
2021,06,29,09,27,21.80
2021,06,29,09,28,22.00
2021,06,29,09,29,22.20
2021,06,29,09,30,22.30
2021,06,29,09,31,22.40
2021,06,29,09,32,22.50
2021,06,29,09,33,22.60
2021,06,29,09,34,22.70
2021,06,29,09,35,22.70
2021,06,29,09,36,22.60
2021,06,29,09,37,22.60
2021,06,29,09,38,22.50
2021,06,29,09,39,22.40
2021,06,29,09,40,22.30
2021,06,29,09,41,22.30
2021,06,29,09,42,22.10
2021,06,29,09,43,22.10
2021,06,29,09,44,21.90
2021,06,29,09,45,21.60
2021,06,29,09,46,21.40
2021,06,29,09,47,21.30
2021,06,29,09,48,21.10
2021,06,29,09,49,20.90
2021,06,29,09,50,20.70
2021,06,29,09,51,20.60
2021,06,29,09,52,20.50
2021,06,29,09,53,20.30
2021,06,29,09,54,20.20
2021,06,29,09,55,20.10
2021,06,29,09,56,20.10
2021,06,29,09,57,20.10
2021,06,29,09,58,20.10
2021,06,29,09,59,20.00
2021,06,29,10,00,20.00
2021,06,29,10,01,20.00
2021,06,29,10,02,20.00
2021,06,29,10,03,20.00
2021,06,29,10,04,20.10
2021,06,29,10,05,20.10
2021,06,29,10,06,20.10
2021,06,29,10,07,20.10
2021,06,29,10,08,20.10
2021,06,29,10,09,20.10
2021,06,29,10,10,20.20
2021,06,29,10,11,20.30
2021,06,29,10,12,20.30
2021,06,29,10,13,20.30
2021,06,29,10,14,20.40
2021,06,29,10,15,20.50
2021,06,29,10,16,20.50
2021,06,29,10,17,20.60
2021,06,29,10,18,20.50
2021,06,29,10,19,20.50
2021,06,29,10,20,20.50
2021,06,29,10,21,20.70
2021,06,29,10,22,20.80
2021,06,29,10,23,20.90
2021,06,29,10,24,21.00
2021,06,29,10,25,21.10
2021,06,29,10,26,20.90
2021,06,29,10,27,20.80
2021,06,29,10,28,20.70
2021,06,29,10,29,20.70
2021,06,29,10,30,20.70
2021,06,29,10,31,20.70
2021,06,29,10,32,20.60
2021,06,29,10,33,20.50
2021,06,29,10,34,20.40
2021,06,29,10,35,20.40
2021,06,29,10,36,20.40
2021,06,29,10,37,20.40
2021,06,29,10,38,20.40
2021,06,29,10,39,20.40
2021,06,29,10,40,20.40
2021,06,29,10,41,20.50
2021,06,29,10,42,20.60
2021,06,29,10,43,20.50
2021,06,29,10,44,20.40
2021,06,29,10,45,20.20
2021,06,29,10,46,20.20
2021,06,29,10,47,20.20
2021,06,29,10,48,20.20
2021,06,29,10,49,20.30
2021,06,29,10,50,20.30
2021,06,29,10,51,20.30
2021,06,29,10,52,20.40
2021,06,29,10,53,20.40
2021,06,29,10,54,20.40
2021,06,29,10,55,20.40
2021,06,29,10,56,20.50
2021,06,29,10,57,20.50
2021,06,29,10,58,20.40
2021,06,29,10,59,20.30
2021,06,29,11,00,20.30
2021,06,29,11,01,20.30
2021,06,29,11,02,20.30
2021,06,29,11,03,20.50
2021,06,29,11,04,20.60
2021,06,29,11,05,20.70
2021,06,29,11,06,20.70
2021,06,29,11,07,20.70
2021,06,29,11,08,20.70
2021,06,29,11,09,20.70
2021,06,29,11,10,20.70
2021,06,29,11,11,20.80
2021,06,29,11,12,21.00
2021,06,29,11,13,21.20
2021,06,29,11,14,21.30
2021,06,29,11,15,21.40
2021,06,29,11,16,21.50
2021,06,29,11,17,21.60
2021,06,29,11,18,21.50
2021,06,29,11,19,21.40
2021,06,29,11,20,21.30
2021,06,29,11,21,21.30
2021,06,29,11,22,21.30
2021,06,29,11,23,21.30
2021,06,29,11,24,21.40
2021,06,29,11,25,21.60
2021,06,29,11,26,21.70
2021,06,29,11,27,21.80
2021,06,29,11,28,22.10
2021,06,29,11,29,22.30
2021,06,29,11,30,22.60
2021,06,29,11,31,23.00
2021,06,29,11,32,23.30
2021,06,29,11,33,23.70
2021,06,29,11,34,24.00
2021,06,29,11,35,24.20
2021,06,29,11,36,24.50
2021,06,29,11,37,24.80
2021,06,29,11,38,24.90
2021,06,29,11,39,25.10
2021,06,29,11,40,25.20
2021,06,29,11,41,25.20
2021,06,29,11,42,25.30
2021,06,29,11,43,25.40
2021,06,29,11,44,25.50
2021,06,29,11,45,25.60
2021,06,29,11,46,25.60
2021,06,29,11,47,25.70
2021,06,29,11,48,25.70
2021,06,29,11,49,25.80
2021,06,29,11,50,25.80
2021,06,29,11,51,25.80
2021,06,29,11,52,25.80
2021,06,29,11,53,25.70
2021,06,29,11,54,25.70
2021,06,29,11,55,25.60
2021,06,29,11,56,25.60
2021,06,29,11,57,25.60
2021,06,29,11,58,25.60
2021,06,29,11,59,25.70
2021,06,29,12,00,25.70
2021,06,29,12,01,25.70
2021,06,29,12,02,25.80
2021,06,29,12,03,25.90
2021,06,29,12,04,25.90
2021,06,29,12,05,25.90
2021,06,29,12,06,25.90
2021,06,29,12,07,26.00
2021,06,29,12,08,26.10
2021,06,29,12,09,26.10
2021,06,29,12,10,26.10
2021,06,29,12,11,26.10
2021,06,29,12,12,26.10
2021,06,29,12,13,26.10
2021,06,29,12,14,26.10
2021,06,29,12,15,26.10
2021,06,29,12,16,26.00
2021,06,29,12,17,26.00
2021,06,29,12,18,25.90
2021,06,29,12,19,26.00
2021,06,29,12,20,26.10
2021,06,29,12,21,26.30
2021,06,29,12,22,26.40
2021,06,29,12,23,26.50
2021,06,29,12,24,26.60
2021,06,29,12,25,26.60
2021,06,29,12,26,26.50
2021,06,29,12,27,26.50
2021,06,29,12,28,26.60
2021,06,29,12,29,26.60
2021,06,29,12,30,26.60
2021,06,29,12,31,26.60
2021,06,29,12,32,26.60
2021,06,29,12,33,26.60
2021,06,29,12,34,26.70
2021,06,29,12,35,26.70
2021,06,29,12,36,26.70
2021,06,29,12,37,26.60
2021,06,29,12,38,26.50
2021,06,29,12,39,26.60
2021,06,29,12,40,26.60
2021,06,29,12,41,26.60
2021,06,29,12,42,26.60
2021,06,29,12,43,26.60
2021,06,29,12,44,26.60
2021,06,29,12,45,26.70
2021,06,29,12,46,26.70
2021,06,29,12,47,26.70
2021,06,29,12,48,26.70
2021,06,29,12,49,26.80
2021,06,29,12,50,26.80
2021,06,29,12,51,26.80
2021,06,29,12,52,26.70
2021,06,29,12,53,26.70
2021,06,29,12,54,26.60
2021,06,29,12,55,26.60
2021,06,29,12,56,26.60
2021,06,29,12,57,26.60
2021,06,29,12,58,26.60
2021,06,29,12,59,26.70
2021,06,29,13,00,26.70
2021,06,29,13,01,26.80
2021,06,29,13,02,26.60
2021,06,29,13,03,26.40
2021,06,29,13,04,26.10
2021,06,29,13,05,25.90
2021,06,29,13,06,25.70
2021,06,29,13,07,25.60
2021,06,29,13,08,25.50
2021,06,29,13,09,25.40
2021,06,29,13,10,25.30
2021,06,29,13,11,25.30
2021,06,29,13,12,25.40
2021,06,29,13,13,25.40
2021,06,29,13,14,25.50
2021,06,29,13,15,25.40
2021,06,29,13,16,25.40
2021,06,29,13,17,25.50
2021,06,29,13,18,25.50
2021,06,29,13,19,25.60
2021,06,29,13,20,25.70
2021,06,29,13,21,25.80
2021,06,29,13,22,25.90
2021,06,29,13,23,26.00
2021,06,29,13,24,26.20
2021,06,29,13,25,26.30
2021,06,29,13,26,26.40
2021,06,29,13,27,26.50
2021,06,29,13,28,26.70
2021,06,29,13,29,26.80
2021,06,29,13,30,27.00
2021,06,29,13,31,27.10
2021,06,29,13,32,27.10
2021,06,29,13,33,27.10
2021,06,29,13,34,27.10
2021,06,29,13,35,27.20
2021,06,29,13,36,27.20
2021,06,29,13,37,27.20
2021,06,29,13,38,27.30
2021,06,29,13,39,27.30
2021,06,29,13,40,27.20
2021,06,29,13,41,27.20
2021,06,29,13,42,27.20
2021,06,29,13,43,27.20
2021,06,29,13,44,27.20
2021,06,29,13,45,27.30
2021,06,29,13,46,27.30
2021,06,29,13,47,27.30
2021,06,29,13,48,27.30
2021,06,29,13,49,27.30
2021,06,29,13,50,27.30
2021,06,29,13,51,27.40
2021,06,29,13,52,27.60
2021,06,29,13,53,27.80
2021,06,29,13,54,27.90
2021,06,29,13,55,28.00
2021,06,29,13,56,28.10
2021,06,29,13,57,28.10
2021,06,29,13,58,28.20
2021,06,29,13,59,28.20
2021,06,29,14,00,28.20
2021,06,29,14,01,28.20
2021,06,29,14,02,28.20
2021,06,29,14,03,28.10
2021,06,29,14,04,28.00
2021,06,29,14,05,27.90
2021,06,29,14,06,27.90
2021,06,29,14,07,28.00
2021,06,29,14,08,28.10
2021,06,29,14,09,28.10
2021,06,29,14,10,28.00
2021,06,29,14,11,27.90
2021,06,29,14,12,27.90
2021,06,29,14,13,27.90
2021,06,29,14,14,27.90
2021,06,29,14,15,27.80
2021,06,29,14,16,27.80
2021,06,29,14,17,27.80
2021,06,29,14,18,27.80
2021,06,29,14,19,27.80
2021,06,29,14,20,27.80
2021,06,29,14,21,27.80
2021,06,29,14,22,27.80
2021,06,29,14,23,27.90
2021,06,29,14,24,27.90
2021,06,29,14,25,27.90
2021,06,29,14,26,27.90
2021,06,29,14,27,27.90
2021,06,29,14,28,27.80
2021,06,29,14,29,27.80
2021,06,29,14,30,27.90
2021,06,29,14,31,27.90
2021,06,29,14,32,27.80
2021,06,29,14,33,27.70
2021,06,29,14,34,27.60
2021,06,29,14,35,27.50
2021,06,29,14,36,27.40
2021,06,29,14,37,27.30
2021,06,29,14,38,27.30
2021,06,29,14,39,27.20
2021,06,29,14,40,27.10
2021,06,29,14,41,27.00
2021,06,29,14,42,26.90
2021,06,29,14,43,26.90
2021,06,29,14,44,26.90
2021,06,29,14,45,26.90
2021,06,29,14,46,26.90
2021,06,29,14,47,26.90
2021,06,29,14,48,26.90
2021,06,29,14,49,26.90
2021,06,29,14,50,26.90
2021,06,29,14,51,26.90
2021,06,29,14,52,27.00
2021,06,29,14,53,27.00
2021,06,29,14,54,27.00
2021,06,29,14,55,27.00
2021,06,29,14,56,27.00
2021,06,29,14,57,27.00
2021,06,29,14,58,26.90
2021,06,29,14,59,26.70
2021,06,29,15,00,26.60
2021,06,29,15,01,26.40
2021,06,29,15,02,26.30
2021,06,29,15,03,26.20
2021,06,29,15,04,26.10
2021,06,29,15,05,25.90
2021,06,29,15,06,25.70
2021,06,29,15,07,25.60
2021,06,29,15,08,25.60
2021,06,29,15,09,25.50
2021,06,29,15,10,25.50
2021,06,29,15,11,25.50
2021,06,29,15,12,25.60
2021,06,29,15,13,25.60
2021,06,29,15,14,25.70
2021,06,29,15,15,25.70
2021,06,29,15,16,25.80
2021,06,29,15,17,25.80
2021,06,29,15,18,25.80
2021,06,29,15,19,25.70
2021,06,29,15,20,25.60
2021,06,29,15,21,25.60
2021,06,29,15,22,25.60
2021,06,29,15,23,25.60
2021,06,29,15,24,25.60
2021,06,29,15,25,25.60
2021,06,29,15,26,25.60
2021,06,29,15,27,25.60
2021,06,29,15,28,25.70
2021,06,29,15,29,25.80
2021,06,29,15,30,25.80
2021,06,29,15,31,25.80
2021,06,29,15,32,25.80
2021,06,29,15,33,25.80
2021,06,29,15,34,25.90
2021,06,29,15,35,25.80
2021,06,29,15,36,25.70
2021,06,29,15,37,25.60
2021,06,29,15,38,25.60
2021,06,29,15,39,25.70
2021,06,29,15,40,25.70
2021,06,29,15,41,25.70
2021,06,29,15,42,25.70
2021,06,29,15,43,25.80
2021,06,29,15,44,26.00
2021,06,29,15,45,26.10
2021,06,29,15,46,26.20
2021,06,29,15,47,26.20
2021,06,29,15,48,26.10
2021,06,29,15,49,26.10
2021,06,29,15,50,26.10
2021,06,29,15,51,25.90
2021,06,29,15,52,25.80
2021,06,29,15,53,25.70
2021,06,29,15,54,25.70
2021,06,29,15,55,25.80
2021,06,29,15,56,25.80
2021,06,29,15,57,26.00
2021,06,29,15,58,26.00
2021,06,29,15,59,26.10
2021,06,29,16,00,26.10
2021,06,29,16,01,26.20
2021,06,29,16,02,26.30
2021,06,29,16,03,26.30
2021,06,29,16,04,26.30
2021,06,29,16,05,26.30
2021,06,29,16,06,26.20
2021,06,29,16,07,26.20
2021,06,29,16,08,26.20
2021,06,29,16,09,26.20
2021,06,29,16,10,26.30
2021,06,29,16,11,26.30
2021,06,29,16,12,26.30
2021,06,29,16,13,26.20
2021,06,29,16,14,26.10
2021,06,29,16,15,26.10
2021,06,29,16,16,26.10
2021,06,29,16,17,26.10
2021,06,29,16,18,26.20
2021,06,29,16,19,26.20
2021,06,29,16,20,26.20
2021,06,29,16,21,26.20
2021,06,29,16,22,26.20
2021,06,29,16,23,26.20
2021,06,29,16,24,26.20
2021,06,29,16,25,26.00
2021,06,29,16,26,26.00
2021,06,29,16,27,25.90
2021,06,29,16,28,25.90
2021,06,29,16,29,25.70
2021,06,29,16,30,25.60
2021,06,29,16,31,25.40
2021,06,29,16,32,25.20
2021,06,29,16,33,25.10
2021,06,29,16,34,25.00
2021,06,29,16,35,24.90
2021,06,29,16,36,24.90
2021,06,29,16,37,24.90
2021,06,29,16,38,24.90
2021,06,29,16,39,24.90
2021,06,29,16,40,25.00
2021,06,29,16,41,25.10
2021,06,29,16,42,25.20
2021,06,29,16,43,25.20
2021,06,29,16,44,25.30
2021,06,29,16,45,25.30
2021,06,29,16,46,25.40
2021,06,29,16,47,25.40
2021,06,29,16,48,25.50
2021,06,29,16,49,25.50
2021,06,29,16,50,25.40
2021,06,29,16,51,25.40
2021,06,29,16,52,25.30
2021,06,29,16,53,25.40
2021,06,29,16,54,25.30
2021,06,29,16,55,25.40
2021,06,29,16,56,25.40
2021,06,29,16,57,25.40
2021,06,29,16,58,25.50
2021,06,29,16,59,25.60
2021,06,29,17,00,25.60
2021,06,29,17,01,25.70
2021,06,29,17,02,25.70
2021,06,29,17,03,25.70
2021,06,29,17,04,25.70
2021,06,29,17,05,25.70
2021,06,29,17,06,25.60
2021,06,29,17,07,25.60
2021,06,29,17,08,25.60
2021,06,29,17,09,25.60
2021,06,29,17,10,25.70
2021,06,29,17,11,25.80
2021,06,29,17,12,25.90
2021,06,29,17,13,26.00
2021,06,29,17,14,26.10
2021,06,29,17,15,26.10
2021,06,29,17,16,26.00
2021,06,29,17,17,26.00
2021,06,29,17,18,25.90
2021,06,29,17,19,25.90